This demonstration page uses our WeatherBlox Daily Observations layout. Learn more.

Left ArrowRight Arrow

39.12711, -84.51439

Hourly Observations for December 16, 2018

Temp ( °F °C ) Dew Point ( °F °C ) Humidity (%) Winds ( mph kmh ) Pressure ( in mb ) Visibility ( mi km ) Precip ( " mm )
12:53 am 00:53 Cloudy 43 6.1 41 5 93 93 NNE 9 15 29.94 1014 9 14 0.00 0.00
1:53 am 01:53 Cloudy 43 6.1 40 4.4 89 89 N 6 9 29.96 1014 7 11 0.00 0.00
2:53 am 02:53 Cloudy 43 6.1 40 4.4 89 89 NNE 6 9 29.98 1015 8 13 0.00 0.00
3:53 am 03:53 Cloudy 43 6.1 40 4.4 89 89 WNW 5 7 29.97 1015 8 13 0.00 0.00
4:53 am 04:53 Cloudy 43 6.1 40 4.4 89 89 NW 6 9 29.99 1016 8 13 0.00 0.00
5:53 am 05:53 Cloudy 43 6.1 39 3.9 86 86 WNW 9 15 30.02 1017 8 13 0.00 0.00
6:12 am 06:12 Cloudy 42 5.6 39 3.9 89 89 NW 8 13 30.03 1017 8 13 0.00 0.00
6:53 am 06:53 Cloudy 42 5.6 39 3.9 89 89 NW 8 13 30.03 1017 10 16 0.00 0.00
7:25 am 07:25 Cloudy 41 5 38 3.3 89 89 NW 9 15 30.03 1017 7 11 0.00 0.00
7:53 am 07:53 Cloudy 41 5 38 3.3 89 89 NNW 7 11 30.05 1018 7 11 0.00 0.00
8:53 am 08:53 Cloudy with Mist and Fog 40 4.4 37 2.8 89 89 NNW 8 13 30.08 1019 5 8 0.00 0.00
9:53 am 09:53 Cloudy with Mist and Fog 40 4.4 38 3.3 93 93 NW 8 13 30.11 1020 6 10 0.00 0.00
10:53 am 10:53 Cloudy with Mist and Fog 41 5 38 3.3 89 89 VRB 5 7 30.12 1020 4 6 0.00 0.00
11:53 am 11:53 Cloudy with Mist and Fog 42 5.6 39 3.9 89 89 Calm 30.10 1019 6 10 0.00 0.00
12:53 pm 12:53 Cloudy with Mist and Fog 43 6.1 39 3.9 86 86 W 3 6 30.09 1019 6 10 0.00 0.00
1:53 pm 13:53 Cloudy 44 6.7 40 4.4 85 85 W 7 11 30.07 1018 7 11 0.00 0.00
2:32 pm 14:32 Cloudy 45 7.2 41 5 86 86 WSW 6 9 30.06 1018 8 13 0.00 0.00
2:53 pm 14:53 Cloudy 45 7.2 41 5 86 86 VRB 3 6 30.07 1018 8 13 0.00 0.00
3:53 pm 15:53 Cloudy 47 8.3 42 5.6 83 83 SSW 6 9 30.08 1019 10 16 0.00 0.00
4:53 pm 16:53 Cloudy 47 8.3 43 6.1 86 86 SW 7 11 30.10 1019 10 16 0.00 0.00
5:53 pm 17:53 Cloudy 46 7.8 41 5 83 83 W 9 15 30.12 1020 10 16 0.00 0.00
6:53 pm 18:53 Mostly Clear 43 6.1 40 4.4 89 89 WSW 7 11 30.13 1020 10 16 0.00 0.00
7:40 pm 19:40 Mostly Cloudy 42 5.6 39 3.9 89 89 SSW 9 15 30.12 1020 9 14 0.00 0.00
7:53 pm 19:53 Mostly Cloudy 41 5 39 3.9 93 93 SSW 9 15 30.13 1020 9 14 0.00 0.00
8:53 pm 20:53 Mostly Cloudy 40 4.4 38 3.3 93 93 S 7 11 30.14 1021 8 13 0.00 0.00
9:53 pm 21:53 Mostly Cloudy with Mist and Fog 39 3.9 38 3.3 96 96 Calm 30.15 1021 3 5 0.00 0.00
10:30 pm 22:30 Cloudy with Mist and Fog 39 3.9 38 3.3 96 96 S 5 7 30.15 1021 3 4 0.00 0.00
10:53 pm 22:53 Mostly Cloudy with Mist and Fog 40 4.4 39 3.9 97 97 SW 6 9 30.16 1021 6 10 0.00 0.00
11:05 pm 23:05 Partly Cloudy with Mist and Fog 38 3.3 38 3.3 100 100 SSW 6 9 30.15 1021 3 5 0.00 0.00
11:12 pm 23:12 Mostly Clear with Mist and Fog 38 3.3 37 2.8 97 97 SSW 6 9 30.15 1021 3 4 0.00 0.00
11:34 pm 23:34 Clear with Mist and Fog 38 3.3 37 2.8 97 97 S 6 9 30.15 1021 5 8 0.00 0.00
11:53 pm 23:53 Clear with Mist and Fog 36 2.2 35 1.7 97 97 S 6 9 30.14 1021 3 5 0.00 0.00

Powered by AerisWeather